Time,TemperatureF,DewpointF,PressureIn,WindDirection,WindDirectionDegrees,WindSpeedMPH,WindSpeedGustMPH,Humidity,HourlyPrecipIn,Conditions,Clouds,dailyrainin,SoftwareType,DateUTC
2013-08-08 00:04:00,58.4,25.4,24.98,WSW,242,8.0,-999.0,28,-99.99,,,-99.99,dwt +perl,2013-08-08 07:04:00,
2013-08-08 00:09:00,58.7,25.7,24.98,WSW,244,6.0,-999.0,28,-99.99,,,-99.99,dwt +perl,2013-08-08 07:09:00,
2013-08-08 00:14:00,58.8,25.8,24.98,WSW,244,5.0,-999.0,28,-99.99,,,-99.99,dwt +perl,2013-08-08 07:14:00,
2013-08-08 00:19:00,58.6,25.6,24.98,WSW,251,6.0,-999.0,28,-99.99,,,-99.99,dwt +perl,2013-08-08 07:19:00,
2013-08-08 00:24:00,58.2,25.3,24.98,WSW,255,5.0,-999.0,28,-99.99,,,-99.99,dwt +perl,2013-08-08 07:24:00,
2013-08-08 00:29:00,57.8,26.6,24.98,WSW,257,7.0,-999.0,30,-99.99,,,-99.99,dwt +perl,2013-08-08 07:29:00,
2013-08-08 00:34:00,57.7,26.5,24.98,West,261,6.0,-999.0,30,-99.99,,,-99.99,dwt +perl,2013-08-08 07:34:00,
2013-08-08 00:39:00,57.9,25.8,24.98,WSW,255,6.0,-999.0,29,-99.99,,,-99.99,dwt +perl,2013-08-08 07:39:00,
2013-08-08 00:44:00,57.9,25.8,24.98,WSW,249,7.0,-999.0,29,-99.99,,,-99.99,dwt +perl,2013-08-08 07:44:00,
2013-08-08 00:49:00,57.7,26.5,24.98,WSW,255,7.0,-999.0,30,-99.99,,,-99.99,dwt +perl,2013-08-08 07:49:00,
2013-08-08 00:54:00,57.7,27.3,24.98,West,263,5.0,-999.0,31,-99.99,,,-99.99,dwt +perl,2013-08-08 07:54:00,
2013-08-08 00:59:00,57.9,27.5,24.98,West,271,7.0,-999.0,31,-99.99,,,-99.99,dwt +perl,2013-08-08 07:59:00,
2013-08-08 01:04:00,58.0,28.3,24.98,West,266,5.0,-999.0,32,-99.99,,,-99.99,dwt +perl,2013-08-08 08:04:00,
2013-08-08 01:09:00,57.9,27.5,24.98,WSW,247,8.0,-999.0,31,-99.99,,,-99.99,dwt +perl,2013-08-08 08:09:00,
2013-08-08 01:14:00,57.7,26.5,24.98,WSW,252,7.0,-999.0,30,-99.99,,,-99.99,dwt +perl,2013-08-08 08:14:00,
2013-08-08 01:19:00,57.8,28.1,24.97,West,268,9.0,-999.0,32,-99.99,,,-99.99,dwt +perl,2013-08-08 08:19:00,
2013-08-08 01:24:00,57.8,29.6,24.97,West,262,5.0,-999.0,34,-99.99,,,-99.99,dwt +perl,2013-08-08 08:24:00,
2013-08-08 01:29:00,57.9,28.2,24.97,West,274,6.0,-999.0,32,-99.99,,,-99.99,dwt +perl,2013-08-08 08:29:00,
2013-08-08 01:34:00,57.8,27.4,24.97,West,262,7.0,-999.0,31,-99.99,,,-99.99,dwt +perl,2013-08-08 08:34:00,
2013-08-08 01:39:00,57.7,27.3,24.97,West,260,6.0,-999.0,31,-99.99,,,-99.99,dwt +perl,2013-08-08 08:39:00,
2013-08-08 01:44:00,57.8,25.8,24.97,West,260,6.0,-999.0,29,-99.99,,,-99.99,dwt +perl,2013-08-08 08:44:00,
2013-08-08 01:49:00,57.7,25.7,24.97,West,261,5.0,-999.0,29,-99.99,,,-99.99,dwt +perl,2013-08-08 08:49:00,
2013-08-08 01:54:00,57.7,23.1,24.97,West,260,6.0,-999.0,26,-99.99,,,-99.99,dwt +perl,2013-08-08 08:54:00,
2013-08-08 01:59:00,57.5,22.9,24.97,WSW,258,6.0,-999.0,26,-99.99,,,-99.99,dwt +perl,2013-08-08 08:59:00,
2013-08-08 02:04:00,57.4,22.8,24.97,WSW,252,8.0,-999.0,26,-99.99,,,-99.99,dwt +perl,2013-08-08 09:04:00,
2013-08-08 02:09:00,57.3,22.7,24.96,West,262,7.0,-999.0,26,-99.99,,,-99.99,dwt +perl,2013-08-08 09:09:00,
2013-08-08 02:14:00,57.3,20.8,24.96,West,263,5.0,-999.0,24,-99.99,,,-99.99,dwt +perl,2013-08-08 09:14:00,
2013-08-08 02:19:00,57.4,19.9,24.96,West,264,6.0,-999.0,23,-99.99,,,-99.99,dwt +perl,2013-08-08 09:19:00,
2013-08-08 02:24:00,57.5,26.3,24.96,West,265,5.0,-999.0,30,-99.99,,,-99.99,dwt +perl,2013-08-08 09:24:00,
2013-08-08 02:29:00,57.7,28.0,24.96,West,267,5.0,-999.0,32,-99.99,,,-99.99,dwt +perl,2013-08-08 09:29:00,
2013-08-08 02:34:00,57.8,28.9,24.96,West,266,5.0,-999.0,33,-99.99,,,-99.99,dwt +perl,2013-08-08 09:34:00,
2013-08-08 02:39:00,57.9,29.7,24.96,West,266,4.0,-999.0,34,-99.99,,,-99.99,dwt +perl,2013-08-08 09:39:00,
2013-08-08 02:44:00,57.9,29.7,24.96,West,260,5.0,-999.0,34,-99.99,,,-99.99,dwt +perl,2013-08-08 09:44:00,
2013-08-08 02:49:00,58.0,27.5,24.96,West,263,4.0,-999.0,31,-99.99,,,-99.99,dwt +perl,2013-08-08 09:49:00,
2013-08-08 02:54:00,58.2,27.7,24.96,West,262,5.0,-999.0,31,-99.99,,,-99.99,dwt +perl,2013-08-08 09:54:00,
2013-08-08 02:59:00,58.1,28.4,24.96,West,261,6.0,-999.0,32,-99.99,,,-99.99,dwt +perl,2013-08-08 09:59:00,
2013-08-08 03:04:00,58.1,27.6,24.96,West,262,5.0,-999.0,31,-99.99,,,-99.99,dwt +perl,2013-08-08 10:04:00,
2013-08-08 03:09:00,58.2,27.7,24.96,West,261,4.0,-999.0,31,-99.99,,,-99.99,dwt +perl,2013-08-08 10:09:00,
2013-08-08 03:14:00,57.8,30.3,24.95,West,262,5.0,-999.0,35,-99.99,,,-99.99,dwt +perl,2013-08-08 10:14:00,
2013-08-08 03:19:00,57.4,29.3,24.95,West,263,5.0,-999.0,34,-99.99,,,-99.99,dwt +perl,2013-08-08 10:19:00,
2013-08-08 03:24:00,57.4,29.3,24.95,West,264,4.0,-999.0,34,-99.99,,,-99.99,dwt +perl,2013-08-08 10:24:00,
2013-08-08 03:29:00,57.5,29.4,24.95,West,264,6.0,-999.0,34,-99.99,,,-99.99,dwt +perl,2013-08-08 10:29:00,
2013-08-08 03:34:00,57.5,30.1,24.95,West,263,7.0,-999.0,35,-99.99,,,-99.99,dwt +perl,2013-08-08 10:34:00,
2013-08-08 03:39:00,57.3,29.9,24.95,West,266,4.0,-999.0,35,-99.99,,,-99.99,dwt +perl,2013-08-08 10:39:00,
2013-08-08 03:44:00,57.2,29.8,24.95,West,267,7.0,-999.0,35,-99.99,,,-99.99,dwt +perl,2013-08-08 10:44:00,
2013-08-08 03:49:00,57.5,28.6,24.95,West,267,5.0,-999.0,33,-99.99,,,-99.99,dwt +perl,2013-08-08 10:49:00,
2013-08-08 03:59:00,57.5,28.6,24.95,West,265,5.0,-999.0,33,-99.99,,,-99.99,dwt +perl,2013-08-08 10:59:00,
2013-08-08 04:04:00,57.5,28.6,24.95,West,263,7.0,-999.0,33,-99.99,,,-99.99,dwt +perl,2013-08-08 11:04:00,
2013-08-08 04:09:00,57.5,28.6,24.95,West,261,4.0,-999.0,33,-99.99,,,-99.99,dwt +perl,2013-08-08 11:09:00,
2013-08-08 04:14:00,57.6,29.4,24.95,West,263,5.0,-999.0,34,-99.99,,,-99.99,dwt +perl,2013-08-08 11:14:00,
2013-08-08 04:19:00,57.2,26.0,24.95,WSW,254,5.0,-999.0,30,-99.99,,,-99.99,dwt +perl,2013-08-08 11:19:00,
2013-08-08 04:24:00,57.1,27.5,24.95,West,259,4.0,-999.0,32,-99.99,,,-99.99,dwt +perl,2013-08-08 11:24:00,
2013-08-08 04:29:00,57.2,28.4,24.94,West,260,4.0,-999.0,33,-99.99,,,-99.99,dwt +perl,2013-08-08 11:29:00,
2013-08-08 04:34:00,57.2,27.6,24.94,West,260,4.0,-999.0,32,-99.99,,,-99.99,dwt +perl,2013-08-08 11:34:00,
2013-08-08 04:39:00,57.2,24.4,24.94,West,260,6.0,-999.0,28,-99.99,,,-99.99,dwt +perl,2013-08-08 11:39:00,
2013-08-08 04:49:00,57.3,27.7,24.94,West,260,4.0,-999.0,32,-99.99,,,-99.99,dwt +perl,2013-08-08 11:49:00,
2013-08-08 04:54:00,57.2,23.5,24.94,West,260,6.0,-999.0,27,-99.99,,,-99.99,dwt +perl,2013-08-08 11:54:00,
2013-08-08 05:04:00,57.5,27.9,24.94,West,260,5.0,-999.0,32,-99.99,,,-99.99,dwt +perl,2013-08-08 12:04:00,
2013-08-08 05:09:00,57.5,27.9,24.94,West,260,5.0,-999.0,32,-99.99,,,-99.99,dwt +perl,2013-08-08 12:09:00,
2013-08-08 05:14:00,57.3,27.7,24.94,West,260,5.0,-999.0,32,-99.99,,,-99.99,dwt +perl,2013-08-08 12:14:00,
2013-08-08 05:19:00,57.3,27.7,24.94,West,260,3.0,-999.0,32,-99.99,,,-99.99,dwt +perl,2013-08-08 12:19:00,
2013-08-08 05:24:00,57.3,26.1,24.94,WSW,245,8.0,-999.0,30,-99.99,,,-99.99,dwt +perl,2013-08-08 12:24:00,
2013-08-08 05:29:00,57.3,26.9,24.94,West,260,7.0,-999.0,31,-99.99,,,-99.99,dwt +perl,2013-08-08 12:29:00,
2013-08-08 05:34:00,57.6,26.4,24.94,SW,234,7.0,-999.0,30,-99.99,,,-99.99,dwt +perl,2013-08-08 12:34:00,
2013-08-08 05:39:00,57.4,27.0,24.94,WSW,244,8.0,-999.0,31,-99.99,,,-99.99,dwt +perl,2013-08-08 12:39:00,
2013-08-08 05:44:00,57.5,29.4,24.94,WSW,239,9.0,-999.0,34,-99.99,,,-99.99,dwt +perl,2013-08-08 12:44:00,
2013-08-08 05:49:00,57.5,27.1,24.94,SW,236,7.0,-999.0,31,-99.99,,,-99.99,dwt +perl,2013-08-08 12:49:00,
2013-08-08 05:59:00,57.5,27.9,24.94,WSW,243,8.0,-999.0,32,-99.99,,,-99.99,dwt +perl,2013-08-08 12:59:00,
2013-08-08 06:04:00,57.5,27.9,24.94,WSW,238,8.0,-999.0,32,-99.99,,,-99.99,dwt +perl,2013-08-08 13:04:00,
2013-08-08 06:14:00,57.5,27.9,24.94,SW,228,7.0,-999.0,32,-99.99,,,-99.99,dwt +perl,2013-08-08 13:14:00,
2013-08-08 06:19:00,57.6,28.7,24.94,WSW,240,6.0,-999.0,33,-99.99,,,-99.99,dwt +perl,2013-08-08 13:19:00,
2013-08-08 06:24:00,57.7,28.0,24.95,WSW,242,6.0,-999.0,32,-99.99,,,-99.99,dwt +perl,2013-08-08 13:24:00,
2013-08-08 06:29:00,57.6,27.2,24.94,WSW,242,7.0,-999.0,31,-99.99,,,-99.99,dwt +perl,2013-08-08 13:29:00,
2013-08-08 06:34:00,57.7,27.3,24.94,WSW,242,7.0,-999.0,31,-99.99,,,-99.99,dwt +perl,2013-08-08 13:34:00,
2013-08-08 06:39:00,58.0,27.5,24.94,WSW,242,7.0,-999.0,31,-99.99,,,-99.99,dwt +perl,2013-08-08 13:39:00,
2013-08-08 06:49:00,58.1,28.4,24.94,WSW,242,7.0,-999.0,32,-99.99,,,-99.99,dwt +perl,2013-08-08 13:49:00,
2013-08-08 06:54:00,58.1,28.4,24.94,WSW,242,7.0,-999.0,32,-99.99,,,-99.99,dwt +perl,2013-08-08 13:54:00,
2013-08-08 06:59:00,57.9,27.5,24.94,WSW,242,5.0,-999.0,31,-99.99,,,-99.99,dwt +perl,2013-08-08 13:59:00,
2013-08-08 07:09:00,57.8,28.9,24.95,WSW,242,3.0,-999.0,33,-99.99,,,-99.99,dwt +perl,2013-08-08 14:09:00,
2013-08-08 07:14:00,57.7,28.8,24.95,WSW,242,5.0,-999.0,33,-99.99,,,-99.99,dwt +perl,2013-08-08 14:14:00,
2013-08-08 07:19:00,57.6,27.2,24.95,WSW,242,5.0,-999.0,31,-99.99,,,-99.99,dwt +perl,2013-08-08 14:19:00,
2013-08-08 07:24:00,57.5,26.3,24.95,WSW,242,3.0,-999.0,30,-99.99,,,-99.99,dwt +perl,2013-08-08 14:24:00,
2013-08-08 07:29:00,57.6,26.4,24.95,WSW,242,4.0,-999.0,30,-99.99,,,-99.99,dwt +perl,2013-08-08 14:29:00,
2013-08-08 07:34:00,57.7,25.7,24.95,WSW,242,3.0,-999.0,29,-99.99,,,-99.99,dwt +perl,2013-08-08 14:34:00,
2013-08-08 07:39:00,57.7,25.7,24.95,WSW,242,4.0,-999.0,29,-99.99,,,-99.99,dwt +perl,2013-08-08 14:39:00,
2013-08-08 07:44:00,57.7,23.1,24.95,WSW,242,4.0,-999.0,26,-99.99,,,-99.99,dwt +perl,2013-08-08 14:44:00,
2013-08-08 07:49:00,57.7,19.1,24.95,WSW,242,4.0,-999.0,22,-99.99,,,-99.99,dwt +perl,2013-08-08 14:49:00,
2013-08-08 07:54:00,57.8,17.0,24.95,WSW,242,4.0,-999.0,20,-99.99,,,-99.99,dwt +perl,2013-08-08 14:54:00,
2013-08-08 07:59:00,58.0,18.3,24.95,WSW,242,4.0,-999.0,21,-99.99,,,-99.99,dwt +perl,2013-08-08 14:59:00,
2013-08-08 08:04:00,58.1,18.4,24.95,WSW,242,5.0,-999.0,21,-99.99,,,-99.99,dwt +perl,2013-08-08 15:04:00,
2013-08-08 08:09:00,58.2,18.5,24.95,WSW,242,1.0,-999.0,21,-99.99,,,-99.99,dwt +perl,2013-08-08 15:09:00,
2013-08-08 08:14:00,58.3,17.4,24.95,WSW,242,3.0,-999.0,20,-99.99,,,-99.99,dwt +perl,2013-08-08 15:14:00,
2013-08-08 08:29:00,58.8,17.8,24.95,WSW,242,2.0,-999.0,20,-99.99,,,-99.99,dwt +perl,2013-08-08 15:29:00,
2013-08-08 08:39:00,58.9,17.9,24.95,WSW,241,5.0,-999.0,20,-99.99,,,-99.99,dwt +perl,2013-08-08 15:39:00,
2013-08-08 08:44:00,59.1,18.1,24.95,WSW,241,5.0,-999.0,20,-99.99,,,-99.99,dwt +perl,2013-08-08 15:44:00,
2013-08-08 08:49:00,59.3,19.4,24.95,WSW,241,3.0,-999.0,21,-99.99,,,-99.99,dwt +perl,2013-08-08 15:49:00,
2013-08-08 08:54:00,59.3,20.5,24.95,WSW,241,4.0,-999.0,22,-99.99,,,-99.99,dwt +perl,2013-08-08 15:54:00,
2013-08-08 08:59:00,59.4,20.5,24.95,SW,235,2.0,-999.0,22,-99.99,,,-99.99,dwt +perl,2013-08-08 15:59:00,
2013-08-08 09:04:00,59.4,21.6,24.95,SW,235,4.0,-999.0,23,-99.99,,,-99.99,dwt +perl,2013-08-08 16:04:00,
2013-08-08 09:09:00,59.6,21.8,24.95,SW,235,1.0,-999.0,23,-99.99,,,-99.99,dwt +perl,2013-08-08 16:09:00,
2013-08-08 09:14:00,60.2,21.2,24.95,SW,235,0.0,-999.0,22,-99.99,,,-99.99,dwt +perl,2013-08-08 16:14:00,
2013-08-08 09:19:00,61.0,21.9,24.95,SW,235,0.0,-999.0,22,-99.99,,,-99.99,dwt +perl,2013-08-08 16:19:00,
2013-08-08 09:24:00,61.3,22.1,24.95,SW,235,1.0,-999.0,22,-99.99,,,-99.99,dwt +perl,2013-08-08 16:24:00,
2013-08-08 09:29:00,61.3,24.2,24.95,SW,234,3.0,-999.0,24,-99.99,,,-99.99,dwt +perl,2013-08-08 16:29:00,
2013-08-08 09:34:00,61.2,24.1,24.95,SW,234,2.0,-999.0,24,-99.99,,,-99.99,dwt +perl,2013-08-08 16:34:00,
2013-08-08 09:39:00,61.0,24.9,24.95,SW,234,2.0,-999.0,25,-99.99,,,-99.99,dwt +perl,2013-08-08 16:39:00,
2013-08-08 09:44:00,61.2,25.1,24.95,SW,234,0.0,-999.0,25,-99.99,,,-99.99,dwt +perl,2013-08-08 16:44:00,
2013-08-08 09:49:00,61.6,26.4,24.95,SW,234,3.0,-999.0,26,-99.99,,,-99.99,dwt +perl,2013-08-08 16:49:00,
2013-08-08 09:54:00,62.2,25.0,24.95,SW,234,0.0,-999.0,24,-99.99,,,-99.99,dwt +perl,2013-08-08 16:54:00,
2013-08-08 09:59:00,62.3,24.0,24.95,SW,234,0.0,-999.0,23,-99.99,,,-99.99,dwt +perl,2013-08-08 16:59:00,
2013-08-08 10:04:00,62.5,26.2,24.95,SW,234,2.0,-999.0,25,-99.99,,,-99.99,dwt +perl,2013-08-08 17:04:00,
2013-08-08 10:09:00,62.8,24.5,24.95,SW,234,0.0,-999.0,23,-99.99,,,-99.99,dwt +perl,2013-08-08 17:09:00,
2013-08-08 10:14:00,63.1,26.7,24.96,SW,234,3.0,-999.0,25,-99.99,,,-99.99,dwt +perl,2013-08-08 17:14:00,
2013-08-08 10:19:00,63.2,26.8,24.96,SW,234,3.0,-999.0,25,-99.99,,,-99.99,dwt +perl,2013-08-08 17:19:00,
2013-08-08 10:24:00,63.0,26.6,24.96,SW,229,2.0,-999.0,25,-99.99,,,-99.99,dwt +perl,2013-08-08 17:24:00,
2013-08-08 10:29:00,63.1,27.7,24.96,SW,229,0.0,-999.0,26,-99.99,,,-99.99,dwt +perl,2013-08-08 17:29:00,
2013-08-08 10:34:00,63.8,27.3,24.95,SW,229,4.0,-999.0,25,-99.99,,,-99.99,dwt +perl,2013-08-08 17:34:00,
2013-08-08 10:39:00,64.4,27.8,24.96,SW,228,0.0,-999.0,25,-99.99,,,-99.99,dwt +perl,2013-08-08 17:39:00,
2013-08-08 10:44:00,65.0,27.3,24.95,SW,229,5.0,-999.0,24,-99.99,,,-99.99,dwt +perl,2013-08-08 17:44:00,
2013-08-08 10:49:00,65.1,28.4,24.95,SW,229,0.0,-999.0,25,-99.99,,,-99.99,dwt +perl,2013-08-08 17:49:00,
2013-08-08 10:54:00,65.7,29.9,24.95,SW,232,1.0,-999.0,26,-99.99,,,-99.99,dwt +perl,2013-08-08 17:54:00,
2013-08-08 10:59:00,65.9,31.9,24.95,SW,233,1.0,-999.0,28,-99.99,,,-99.99,dwt +perl,2013-08-08 17:59:00,
2013-08-08 11:04:00,66.2,30.3,24.96,SW,230,3.0,-999.0,26,-99.99,,,-99.99,dwt +perl,2013-08-08 18:04:00,
2013-08-08 11:09:00,65.7,28.9,24.95,SW,218,0.0,-999.0,25,-99.99,,,-99.99,dwt +perl,2013-08-08 18:09:00,
2013-08-08 11:14:00,66.1,32.0,24.95,SW,220,0.0,-999.0,28,-99.99,,,-99.99,dwt +perl,2013-08-08 18:14:00,
2013-08-08 11:19:00,66.3,31.3,24.95,SW,220,1.0,-999.0,27,-99.99,,,-99.99,dwt +perl,2013-08-08 18:19:00,
2013-08-08 11:24:00,66.0,31.1,24.95,SW,218,0.0,-999.0,27,-99.99,,,-99.99,dwt +perl,2013-08-08 18:24:00,
2013-08-08 11:29:00,65.9,33.6,24.95,SW,222,6.0,-999.0,30,-99.99,,,-99.99,dwt +perl,2013-08-08 18:29:00,
2013-08-08 11:34:00,65.2,27.5,24.95,SW,226,4.0,-999.0,24,-99.99,,,-99.99,dwt +perl,2013-08-08 18:34:00,
2013-08-08 11:39:00,65.0,32.8,24.95,SW,222,0.0,-999.0,30,-99.99,,,-99.99,dwt +perl,2013-08-08 18:39:00,
2013-08-08 11:49:00,65.6,33.3,24.95,SW,224,0.0,-999.0,30,-99.99,,,-99.99,dwt +perl,2013-08-08 18:49:00,
2013-08-08 11:59:00,66.7,40.3,24.95,SW,214,1.0,-999.0,38,-99.99,,,-99.99,dwt +perl,2013-08-08 18:59:00,
2013-08-08 12:04:00,67.0,39.9,24.95,SSW,208,0.0,-999.0,37,-99.99,,,-99.99,dwt +perl,2013-08-08 19:04:00,
2013-08-08 12:09:00,67.2,41.4,24.95,ESE,114,1.0,-999.0,39,-99.99,,,-99.99,dwt +perl,2013-08-08 19:09:00,
2013-08-08 12:14:00,67.1,36.2,24.95,SW,229,1.0,-999.0,32,-99.99,,,-99.99,dwt +perl,2013-08-08 19:14:00,
2013-08-08 12:19:00,67.3,33.1,24.95,SSW,206,0.0,-999.0,28,-99.99,,,-99.99,dwt +perl,2013-08-08 19:19:00,
2013-08-08 12:24:00,67.1,35.5,24.95,SW,219,1.0,-999.0,31,-99.99,,,-99.99,dwt +perl,2013-08-08 19:24:00,
2013-08-08 12:29:00,66.8,36.0,24.95,South,181,2.0,-999.0,32,-99.99,,,-99.99,dwt +perl,2013-08-08 19:29:00,
2013-08-08 12:34:00,66.9,36.8,24.95,South,189,0.0,-999.0,33,-99.99,,,-99.99,dwt +perl,2013-08-08 19:34:00,
2013-08-08 12:39:00,67.3,39.4,24.95,SSE,157,2.0,-999.0,36,-99.99,,,-99.99,dwt +perl,2013-08-08 19:39:00,
2013-08-08 12:44:00,68.2,40.9,24.95,SE,144,0.0,-999.0,37,-99.99,,,-99.99,dwt +perl,2013-08-08 19:44:00,
2013-08-08 12:49:00,68.8,40.8,24.94,SE,139,1.0,-999.0,36,-99.99,,,-99.99,dwt +perl,2013-08-08 19:49:00,
2013-08-08 12:54:00,69.0,38.7,24.95,SSE,168,2.0,-999.0,33,-99.99,,,-99.99,dwt +perl,2013-08-08 19:54:00,
2013-08-08 12:59:00,69.2,41.8,24.94,SSE,147,0.0,-999.0,37,-99.99,,,-99.99,dwt +perl,2013-08-08 19:59:00,
2013-08-08 13:09:00,69.7,41.5,24.95,ESE,122,2.0,-999.0,36,-99.99,,,-99.99,dwt +perl,2013-08-08 20:09:00,
2013-08-08 13:14:00,69.0,39.5,24.94,SE,139,2.0,-999.0,34,-99.99,,,-99.99,dwt +perl,2013-08-08 20:14:00,
2013-08-08 13:19:00,68.8,42.2,24.94,SSE,147,6.0,-999.0,38,-99.99,,,-99.99,dwt +perl,2013-08-08 20:19:00,
2013-08-08 13:24:00,68.8,42.2,24.94,SE,143,1.0,-999.0,38,-99.99,,,-99.99,dwt +perl,2013-08-08 20:24:00,
2013-08-08 13:29:00,68.7,41.4,24.94,SE,139,1.0,-999.0,37,-99.99,,,-99.99,dwt +perl,2013-08-08 20:29:00,
2013-08-08 13:34:00,68.4,41.8,24.94,SE,135,0.0,-999.0,38,-99.99,,,-99.99,dwt +perl,2013-08-08 20:34:00,
2013-08-08 13:39:00,68.5,38.2,24.94,SW,216,1.0,-999.0,33,-99.99,,,-99.99,dwt +perl,2013-08-08 20:39:00,
2013-08-08 13:44:00,68.5,39.0,24.95,South,183,2.0,-999.0,34,-99.99,,,-99.99,dwt +perl,2013-08-08 20:44:00,
2013-08-08 13:49:00,69.4,41.3,24.95,South,181,0.0,-999.0,36,-99.99,,,-99.99,dwt +perl,2013-08-08 20:49:00,
2013-08-08 13:54:00,70.1,42.6,24.94,South,179,2.0,-999.0,37,-99.99,,,-99.99,dwt +perl,2013-08-08 20:54:00,
2013-08-08 13:59:00,69.3,39.7,24.94,SW,222,0.0,-999.0,34,-99.99,,,-99.99,dwt +perl,2013-08-08 20:59:00,
2013-08-08 14:04:00,69.0,43.0,24.94,SW,231,0.0,-999.0,39,-99.99,,,-99.99,dwt +perl,2013-08-08 21:04:00,
2013-08-08 14:14:00,69.0,43.0,24.94,SW,236,0.0,-999.0,39,-99.99,,,-99.99,dwt +perl,2013-08-08 21:14:00,
2013-08-08 14:19:00,68.9,42.9,24.94,WSW,237,2.0,-999.0,39,-99.99,,,-99.99,dwt +perl,2013-08-08 21:19:00,
2013-08-08 14:24:00,69.0,43.0,24.94,NNE,20,4.0,-999.0,39,-99.99,,,-99.99,dwt +perl,2013-08-08 21:24:00,
2013-08-08 14:29:00,68.6,44.0,24.94,NE,45,7.0,-999.0,41,-99.99,,,-99.99,dwt +perl,2013-08-08 21:29:00,
2013-08-08 14:34:00,68.0,44.7,24.94,NE,50,2.0,-999.0,43,-99.99,,,-99.99,dwt +perl,2013-08-08 21:34:00,
2013-08-08 14:44:00,67.6,43.7,24.94,NNE,29,0.0,-999.0,42,-99.99,,,-99.99,dwt +perl,2013-08-08 21:44:00,
2013-08-08 14:54:00,69.2,43.8,24.94,ESE,114,1.0,-999.0,40,-99.99,,,-99.99,dwt +perl,2013-08-08 21:54:00,
2013-08-08 14:59:00,69.8,43.7,24.94,ESE,114,0.0,-999.0,39,-99.99,,,-99.99,dwt +perl,2013-08-08 21:59:00,
2013-08-08 15:04:00,69.8,43.7,24.94,ESE,107,4.0,-999.0,39,-99.99,,,-99.99,dwt +perl,2013-08-08 22:04:00,
2013-08-08 15:09:00,69.0,44.9,24.93,NE,48,0.0,-999.0,42,-99.99,,,-99.99,dwt +perl,2013-08-08 22:09:00,
2013-08-08 15:14:00,69.1,44.4,24.93,NE,49,2.0,-999.0,41,-99.99,,,-99.99,dwt +perl,2013-08-08 22:14:00,
2013-08-08 15:19:00,69.4,43.4,24.93,ENE,70,0.0,-999.0,39,-99.99,,,-99.99,dwt +perl,2013-08-08 22:19:00,
2013-08-08 15:24:00,69.8,43.7,24.93,ENE,68,0.0,-999.0,39,-99.99,,,-99.99,dwt +perl,2013-08-08 22:24:00,
2013-08-08 15:29:00,69.7,43.6,24.93,ENE,68,0.0,-999.0,39,-99.99,,,-99.99,dwt +perl,2013-08-08 22:29:00,
2013-08-08 15:34:00,69.6,44.2,24.93,NE,47,3.0,-999.0,40,-99.99,,,-99.99,dwt +perl,2013-08-08 22:34:00,
2013-08-08 15:44:00,68.5,43.2,24.93,NE,45,3.0,-999.0,40,-99.99,,,-99.99,dwt +perl,2013-08-08 22:44:00,
2013-08-08 15:54:00,69.2,45.1,24.93,NE,45,3.0,-999.0,42,-99.99,,,-99.99,dwt +perl,2013-08-08 22:54:00,
2013-08-08 15:59:00,69.4,44.7,24.93,NE,42,0.0,-999.0,41,-99.99,,,-99.99,dwt +perl,2013-08-08 22:59:00,
2013-08-08 16:04:00,69.6,45.5,24.93,East,81,3.0,-999.0,42,-99.99,,,-99.99,dwt +perl,2013-08-08 23:04:00,
2013-08-08 16:09:00,69.7,43.6,24.93,ESE,112,0.0,-999.0,39,-99.99,,,-99.99,dwt +perl,2013-08-08 23:09:00,
2013-08-08 16:14:00,70.2,44.1,24.92,ESE,112,1.0,-999.0,39,-99.99,,,-99.99,dwt +perl,2013-08-08 23:14:00,
2013-08-08 16:19:00,69.7,44.9,24.92,SW,215,3.0,-999.0,41,-99.99,,,-99.99,dwt +perl,2013-08-08 23:19:00,
2013-08-08 16:24:00,69.3,45.8,24.92,ESE,119,0.0,-999.0,43,-99.99,,,-99.99,dwt +perl,2013-08-08 23:24:00,
2013-08-08 16:29:00,69.0,45.6,24.92,ESE,107,0.0,-999.0,43,-99.99,,,-99.99,dwt +perl,2013-08-08 23:29:00,
2013-08-08 16:34:00,68.9,46.1,24.92,ESE,119,0.0,-999.0,44,-99.99,,,-99.99,dwt +perl,2013-08-08 23:34:00,
2013-08-08 16:44:00,68.7,47.1,24.92,SW,231,1.0,-999.0,46,-99.99,,,-99.99,dwt +perl,2013-08-08 23:44:00,
2013-08-08 16:49:00,68.9,47.2,24.92,SW,228,1.0,-999.0,46,-99.99,,,-99.99,dwt +perl,2013-08-08 23:49:00,
2013-08-08 16:59:00,68.3,47.3,24.91,SW,216,1.0,-999.0,47,-99.99,,,-99.99,dwt +perl,2013-08-08 23:59:00,
2013-08-08 17:04:00,68.6,47.5,24.91,SSW,212,1.0,-999.0,47,-99.99,,,-99.99,dwt +perl,2013-08-09 00:04:00,
2013-08-08 17:09:00,68.6,47.5,24.91,SW,215,4.0,-999.0,47,-99.99,,,-99.99,dwt +perl,2013-08-09 00:09:00,
2013-08-08 17:14:00,66.8,47.0,24.91,SW,233,3.0,-999.0,49,-99.99,,,-99.99,dwt +perl,2013-08-09 00:14:00,
2013-08-08 17:19:00,66.3,47.1,24.91,SW,233,0.0,-999.0,50,-99.99,,,-99.99,dwt +perl,2013-08-09 00:19:00,
2013-08-08 17:24:00,66.7,47.5,24.91,SW,232,1.0,-999.0,50,-99.99,,,-99.99,dwt +perl,2013-08-09 00:24:00,
2013-08-08 17:29:00,67.1,47.3,24.91,SW,222,4.0,-999.0,49,-99.99,,,-99.99,dwt +perl,2013-08-09 00:29:00,
2013-08-08 17:39:00,67.8,47.4,24.91,SSW,212,0.0,-999.0,48,-99.99,,,-99.99,dwt +perl,2013-08-09 00:39:00,
2013-08-08 17:44:00,68.0,47.6,24.91,SW,216,3.0,-999.0,48,-99.99,,,-99.99,dwt +perl,2013-08-09 00:44:00,
2013-08-08 17:59:00,66.7,46.4,24.90,SW,218,2.0,-999.0,48,-99.99,,,-99.99,dwt +perl,2013-08-09 00:59:00,
2013-08-08 18:04:00,66.2,46.5,24.90,SW,218,0.0,-999.0,49,-99.99,,,-99.99,dwt +perl,2013-08-09 01:04:00,
2013-08-08 18:09:00,66.5,47.3,24.90,SW,218,0.0,-999.0,50,-99.99,,,-99.99,dwt +perl,2013-08-09 01:09:00,
2013-08-08 18:14:00,66.7,46.9,24.90,SW,218,0.0,-999.0,49,-99.99,,,-99.99,dwt +perl,2013-08-09 01:14:00,
2013-08-08 18:19:00,66.5,46.7,24.89,SW,218,0.0,-999.0,49,-99.99,,,-99.99,dwt +perl,2013-08-09 01:19:00,
2013-08-08 18:24:00,66.3,47.1,24.89,SW,218,0.0,-999.0,50,-99.99,,,-99.99,dwt +perl,2013-08-09 01:24:00,
2013-08-08 18:29:00,66.3,47.1,24.89,SW,218,0.0,-999.0,50,-99.99,,,-99.99,dwt +perl,2013-08-09 01:29:00,
2013-08-08 18:34:00,65.9,46.7,24.89,SW,218,0.0,-999.0,50,-99.99,,,-99.99,dwt +perl,2013-08-09 01:34:00,
2013-08-08 18:49:00,63.6,46.2,24.89,SW,216,1.0,-999.0,53,-99.99,,,-99.99,dwt +perl,2013-08-09 01:49:00,
2013-08-08 18:54:00,64.4,46.4,24.89,SW,217,1.0,-999.0,52,-99.99,,,-99.99,dwt +perl,2013-08-09 01:54:00,
2013-08-08 18:59:00,61.9,45.5,24.89,SW,216,2.0,-999.0,55,-99.99,,,-99.99,dwt +perl,2013-08-09 01:59:00,
2013-08-08 19:04:00,62.6,45.7,24.89,SW,216,2.0,-999.0,54,-99.99,,,-99.99,dwt +perl,2013-08-09 02:04:00,
2013-08-08 19:09:00,61.1,45.3,24.89,SW,215,1.0,-999.0,56,-99.99,,,-99.99,dwt +perl,2013-08-09 02:09:00,
2013-08-08 19:24:00,61.2,45.4,24.89,SW,215,2.0,-999.0,56,-99.99,,,-99.99,dwt +perl,2013-08-09 02:24:00,
2013-08-08 19:29:00,61.7,43.9,24.89,SSW,210,4.0,-999.0,52,-99.99,,,-99.99,dwt +perl,2013-08-09 02:29:00,
2013-08-08 19:39:00,61.5,44.7,24.89,SSW,194,3.0,-999.0,54,-99.99,,,-99.99,dwt +perl,2013-08-09 02:39:00,
2013-08-08 19:44:00,61.7,44.4,24.89,SSW,208,3.0,-999.0,53,-99.99,,,-99.99,dwt +perl,2013-08-09 02:44:00,
2013-08-08 19:49:00,60.8,44.5,24.89,ESE,102,3.0,-999.0,55,-99.99,,,-99.99,dwt +perl,2013-08-09 02:49:00,
2013-08-08 19:54:00,60.5,44.2,24.89,East,96,5.0,-999.0,55,-99.99,,,-99.99,dwt +perl,2013-08-09 02:54:00,
2013-08-08 19:59:00,60.3,44.1,24.89,ESE,103,5.0,-999.0,55,-99.99,,,-99.99,dwt +perl,2013-08-09 02:59:00,
2013-08-08 20:04:00,60.1,43.9,24.89,ESE,104,3.0,-999.0,55,-99.99,,,-99.99,dwt +perl,2013-08-09 03:04:00,
2013-08-08 20:09:00,59.9,44.2,24.89,East,99,3.0,-999.0,56,-99.99,,,-99.99,dwt +perl,2013-08-09 03:09:00,
2013-08-08 20:19:00,59.7,42.5,24.89,ESE,113,3.0,-999.0,53,-99.99,,,-99.99,dwt +perl,2013-08-09 03:19:00,
2013-08-08 20:24:00,59.7,42.5,24.89,ESE,116,2.0,-999.0,53,-99.99,,,-99.99,dwt +perl,2013-08-09 03:24:00,
2013-08-08 20:29:00,59.8,42.1,24.89,ESE,119,3.0,-999.0,52,-99.99,,,-99.99,dwt +perl,2013-08-09 03:29:00,
2013-08-08 20:34:00,59.9,41.7,24.89,ESE,121,3.0,-999.0,51,-99.99,,,-99.99,dwt +perl,2013-08-09 03:34:00,
2013-08-08 20:39:00,60.0,38.0,24.89,SE,126,6.0,-999.0,44,-99.99,,,-99.99,dwt +perl,2013-08-09 03:39:00,
2013-08-08 20:44:00,60.4,36.0,24.89,SE,126,6.0,-999.0,40,-99.99,,,-99.99,dwt +perl,2013-08-09 03:44:00,
2013-08-08 20:49:00,60.7,34.3,24.89,ESE,116,8.0,-999.0,37,-99.99,,,-99.99,dwt +perl,2013-08-09 03:49:00,
2013-08-08 20:54:00,60.9,33.8,24.89,East,79,6.0,-999.0,36,-99.99,,,-99.99,dwt +perl,2013-08-09 03:54:00,
2013-08-08 20:59:00,60.7,34.9,24.90,East,99,6.0,-999.0,38,-99.99,,,-99.99,dwt +perl,2013-08-09 03:59:00,
2013-08-08 21:04:00,60.4,35.3,24.90,ESE,105,7.0,-999.0,39,-99.99,,,-99.99,dwt +perl,2013-08-09 04:04:00,
2013-08-08 21:09:00,60.6,34.2,24.90,East,93,6.0,-999.0,37,-99.99,,,-99.99,dwt +perl,2013-08-09 04:09:00,
2013-08-08 21:14:00,60.5,38.5,24.90,ESE,119,5.0,-999.0,44,-99.99,,,-99.99,dwt +perl,2013-08-09 04:14:00,
2013-08-08 21:19:00,60.3,37.1,24.90,SE,126,5.0,-999.0,42,-99.99,,,-99.99,dwt +perl,2013-08-09 04:19:00,
2013-08-08 21:24:00,60.0,37.4,24.90,SE,129,6.0,-999.0,43,-99.99,,,-99.99,dwt +perl,2013-08-09 04:24:00,
2013-08-08 21:29:00,60.0,38.6,24.91,SE,129,5.0,-999.0,45,-99.99,,,-99.99,dwt +perl,2013-08-09 04:29:00,
2013-08-08 21:34:00,59.9,37.9,24.91,SE,129,2.0,-999.0,44,-99.99,,,-99.99,dwt +perl,2013-08-09 04:34:00,
2013-08-08 21:39:00,59.6,36.5,24.91,SE,138,2.0,-999.0,42,-99.99,,,-99.99,dwt +perl,2013-08-09 04:39:00,
2013-08-08 21:44:00,59.6,35.9,24.91,SE,144,2.0,-999.0,41,-99.99,,,-99.99,dwt +perl,2013-08-09 04:44:00,
2013-08-08 21:49:00,59.7,34.7,24.90,SSE,147,4.0,-999.0,39,-99.99,,,-99.99,dwt +perl,2013-08-09 04:49:00,
2013-08-08 21:54:00,59.8,40.1,24.91,SSE,147,4.0,-999.0,48,-99.99,,,-99.99,dwt +perl,2013-08-09 04:54:00,
2013-08-08 21:59:00,59.4,40.2,24.91,SSE,147,0.0,-999.0,49,-99.99,,,-99.99,dwt +perl,2013-08-09 04:59:00,
2013-08-08 22:04:00,59.2,36.1,24.91,SSE,147,0.0,-999.0,42,-99.99,,,-99.99,dwt +perl,2013-08-09 05:04:00,
2013-08-08 22:09:00,59.3,35.6,24.91,SSE,147,3.0,-999.0,41,-99.99,,,-99.99,dwt +perl,2013-08-09 05:09:00,
2013-08-08 22:14:00,59.4,36.3,24.91,SSE,147,3.0,-999.0,42,-99.99,,,-99.99,dwt +perl,2013-08-09 05:14:00,
2013-08-08 22:19:00,59.4,36.9,24.91,SSE,147,3.0,-999.0,43,-99.99,,,-99.99,dwt +perl,2013-08-09 05:19:00,
2013-08-08 22:24:00,59.2,38.4,24.91,SSE,148,2.0,-999.0,46,-99.99,,,-99.99,dwt +perl,2013-08-09 05:24:00,
2013-08-08 22:29:00,59.0,39.3,24.90,SSE,149,3.0,-999.0,48,-99.99,,,-99.99,dwt +perl,2013-08-09 05:29:00,
2013-08-08 22:34:00,58.9,39.8,24.90,SSE,164,6.0,-999.0,49,-99.99,,,-99.99,dwt +perl,2013-08-09 05:34:00,
2013-08-08 22:39:00,58.8,38.6,24.90,South,174,5.0,-999.0,47,-99.99,,,-99.99,dwt +perl,2013-08-09 05:39:00,
2013-08-08 22:44:00,58.8,38.6,24.90,South,177,5.0,-999.0,47,-99.99,,,-99.99,dwt +perl,2013-08-09 05:44:00,
2013-08-08 22:49:00,58.7,37.4,24.90,South,177,5.0,-999.0,45,-99.99,,,-99.99,dwt +perl,2013-08-09 05:49:00,
2013-08-08 22:54:00,58.7,36.3,24.90,South,177,3.0,-999.0,43,-99.99,,,-99.99,dwt +perl,2013-08-09 05:54:00,
2013-08-08 22:59:00,58.7,35.1,24.90,South,177,5.0,-999.0,41,-99.99,,,-99.99,dwt +perl,2013-08-09 05:59:00,
2013-08-08 23:04:00,58.8,34.5,24.90,South,176,2.0,-999.0,40,-99.99,,,-99.99,dwt +perl,2013-08-09 06:04:00,
2013-08-08 23:09:00,58.9,33.3,24.90,South,176,2.0,-999.0,38,-99.99,,,-99.99,dwt +perl,2013-08-09 06:09:00,
2013-08-08 23:14:00,58.8,33.9,24.90,South,176,2.0,-999.0,39,-99.99,,,-99.99,dwt +perl,2013-08-09 06:14:00,
2013-08-08 23:19:00,58.8,33.2,24.90,South,187,7.0,-999.0,38,-99.99,,,-99.99,dwt +perl,2013-08-09 06:19:00,
2013-08-08 23:24:00,58.7,34.4,24.90,South,191,5.0,-999.0,40,-99.99,,,-99.99,dwt +perl,2013-08-09 06:24:00,
2013-08-08 23:29:00,58.5,33.6,24.90,SSW,202,7.0,-999.0,39,-99.99,,,-99.99,dwt +perl,2013-08-09 06:29:00,
2013-08-08 23:34:00,58.4,34.2,24.90,SSW,203,7.0,-999.0,40,-99.99,,,-99.99,dwt +perl,2013-08-09 06:34:00,
2013-08-08 23:39:00,58.4,32.9,24.90,SSW,204,5.0,-999.0,38,-99.99,,,-99.99,dwt +perl,2013-08-09 06:39:00,
2013-08-08 23:44:00,58.4,33.5,24.90,SSW,204,5.0,-999.0,39,-99.99,,,-99.99,dwt +perl,2013-08-09 06:44:00,
2013-08-08 23:49:00,58.4,34.2,24.90,SSW,204,6.0,-999.0,40,-99.99,,,-99.99,dwt +perl,2013-08-09 06:49:00,
2013-08-08 23:54:00,58.4,34.8,24.90,SSW,204,6.0,-999.0,41,-99.99,,,-99.99,dwt +perl,2013-08-09 06:54:00,
2013-08-08 23:59:00,58.3,32.8,24.90,SSW,204,5.0,-999.0,38,-99.99,,,-99.99,dwt +perl,2013-08-09 06:59:00,